{"data":{"norad_id":46058,"intl_designator":"2020-055AH","name":"STARLINK-1564","alt_names":[],"object_type":"PAYLOAD","status":"ACTIVE","operator":null,"country":"US","launch_date":"2020-08-07","launch_site_code":"AFETR","launch_vehicle":null,"mission":null,"orbit_class":"UNKNOWN","rcs_meters":null,"size_class":null,"mass_kg":null,"dimensions":null,"purposes":["comms"],"wikipedia_slug":null,"has_3d_model":false,"image_url":null,"decayed_at":null,"tle_current":{"epoch":"2026-05-25T02:25:47.616384Z","epoch_age_seconds":69535,"freshness":"FRESH","line1":"1 46058U 20055AH  26145.10124556 -.00000286  00000+0  24860-5 0  9998","line2":"2 46058  53.1587 119.4428 0001646  85.6627 274.4562 15.30191970320768","mean_motion":15.3019197,"eccentricity":0.0001646,"inclination_deg":53.1587,"raan_deg":119.4428,"arg_perigee_deg":85.6627,"mean_anomaly_deg":274.4562,"bstar":2.486e-6,"rev_number":32076,"period_min":94.10583954378,"perigee_km":474.11097995964,"apogee_km":476.36711135387,"semimajor_km":6853.3760456568,"source":"CELESTRAK","updated_at":"2026-05-25T13:38:16.462370Z"}}}